Location: Unspecified
(0.0000°N, 0.0000°E)
Time: 01:17:28
(UTC+00:00)

Isis 2 - Visible Passes

Search period start: 28 February 2021 00:00
Search period end: 10 March 2021 00:00
Orbit: 1358 x 1423 km, 88.2° (Epoch: 27 February)

Date Brightness Start Highest point End Pass type
(mag) Time Alt. Az. Time Alt. Az. Time Alt. Az.
28 Feb 6.9 19:03:01 10° N 19:11:11 80° W 19:19:16 10° S visible
01 Mar 9.5 05:31:27 10° SE 05:36:23 17° E 05:41:20 10° NE visible
01 Mar 8.2 19:41:07 10° NNW 19:48:20 36° W 19:55:31 10° SSW visible
02 Mar 6.8 18:24:18 10° NNE 18:32:17 60° E 18:40:11 10° S visible
02 Mar 9.3 20:21:33 10° WNW 20:25:28 14° W 20:29:23 10° WSW visible
03 Mar 7.2 19:01:27 10° N 19:09:27 64° W 19:17:25 10° SSW visible
04 Mar 9.4 05:28:37 10° SE 05:34:41 23° E 05:40:45 10° NE visible
04 Mar 8.6 19:40:00 10° NNW 19:46:36 28° W 19:53:12 10° SW visible
05 Mar 6.7 18:22:27 10° N 18:30:34 76° E 18:38:36 10° S visible
06 Mar 10.0 04:54:13 10° E 04:55:51 11° E 04:57:28 10° ENE visible
06 Mar 7.7 18:59:58 10° NNW 19:07:43 51° W 19:15:28 10° SSW visible
07 Mar 9.0 05:26:07 10° SE 05:32:59 29° E 05:39:50 10° NNE visible
07 Mar 9.0 19:39:06 10° NW 19:44:53 22° W 19:50:40 10° SW visible
08 Mar 6.9 18:20:43 10° N 18:28:50 88° W 18:36:55 10° S visible
09 Mar 9.6 04:49:50 10° ESE 04:54:08 15° E 04:58:25 10° NE visible
09 Mar 8.2 18:58:37 10° NNW 19:06:00 40° W 19:13:23 10° SSW visible
